Regional Weather Roundup
Issued by NWS Kansas City/Pleasant Hill, MO

Home | Current Version | Previous Version | Text Only | Print | Product List | Glossary On
Versions: 1 2 3 4 5 6 7 8 9 10 11 12 13 14 15 16 17 18 19 20 21 22 23 24 25 26 27
000
ASUS43 KEAX 222110
RWREAX

WEATHER ROUNDUP FOR EASTERN KANSAS AND NORTHWEST MISSOURI
NATIONAL WEATHER SERVICE KANSAS CITY/PLEASANT HILL MO
400 PM CDT THU JUN 22 2017

KSZ040-057-103>105-MOZ028-029-037-043-222200-
...KANSAS CITY METROPOLITAN AREA...

CITY           SKY/WX    TMP DP  RH WIND       PRES   REMARKS
K.C. INTL      PTSUNNY   85  73  67 S13       29.69F HX  91
K.C. DOWNTOWN  PTSUNNY   87  72  60 S10G24    29.67F HX  93
LEES SUMMIT    CLOUDY    85  72  65 SW18      29.70F HX  91
OLATHE - IXD   PTSUNNY   84  71  65 S13G18    29.70F
OLATHE - OJC   CLOUDY    82  72  71 S15       29.70F
LAWRENCE       MOSUNNY   88  72  58 SE14      29.66F HX  94

$$

MOZ001>008-011>017-020>025-030>033-038>040-044>046-053-054-222200-
...NORTHERN AND CENTRAL MISSOURI...

CITY           SKY/WX    TMP DP  RH WIND       PRES   REMARKS
ST. JOSEPH     SUNNY     89  72  56 S15       29.66F HX  96
MOSBY          CLOUDY    86  68  54 S12       29.69F
WARRENSBURG    CLOUDY    82  70  65 S9        29.70F
WHITEMAN AFB   PTSUNNY   83  76  80 S7        29.70F HX  92
CLINTON        CLOUDY    84  73  70 S7        29.72F HX  91
SEDALIA        CLOUDY    85  76  74 S8        29.73F HX  94
WARSAW         NOT AVBL
CHILLICOTHE      N/A     86  73  65 SE9       29.70F HX  93
KIRKSVILLE     PTSUNNY   86  73  65 S16       29.74F HX  93

$$

MOZ041-047>049-056>058-063>065-088>090-097-222200-
...EASTERN AND SOUTHERN MISSOURI...

CITY           SKY/WX    TMP DP  RH WIND       PRES   REMARKS
ST. LOUIS INTL PTSUNNY   85  71  63 SE9       29.77F HX  90
SPIRIT OF STL  PTSUNNY   84  73  69 SE8       29.74F HX  90
COLUMBIA       CLOUDY    84  74  71 SW8       29.74F HX  91
JEFFERSON CITY CLOUDY    85  71  63 S12       29.72F HX  90
ROLLA          PTSUNNY   84  73  69 SE9       29.75F HX  90
OSAGE BEACH    CLOUDY    84  72  67 S9        29.74F
SPRINGFIELD    PTSUNNY   85  74  69 S8        29.72F HX  92
BRANSON        PTSUNNY   84  72  65 SE8       29.76F
JOPLIN         CLOUDY    89  74  60 CALM      29.71F HX  98
WEST PLAINS    CLOUDY    84  71  65 S9G17     29.78F

$$

IAZ060-094-KSZ022-034>040-054-083-096-NEZ052-066-093-222200-
...KANSAS...SOUTHEAST NEBRASKA AND IOWA...

CITY           SKY/WX    TMP DP  RH WIND       PRES   REMARKS
TOPEKA         SUNNY     89  71  55 S15       29.65F HX  95
MANHATTAN      SUNNY     94  68  42 S18G24    29.62F HX  98
EMPORIA        SUNNY     87  70  56 S12       29.68F HX  92
CHANUTE        MOSUNNY   88  72  58 S14G20    29.68F HX  94
WICHITA        MOSUNNY   92  67  43 S12       29.65F HX  95
OMAHA          CLOUDY    89  69  51 S10       29.62S HX  93
LINCOLN        PTSUNNY   90  66  45 SW10      29.63S HX  92
FALLS CITY     CLOUDY    89  68  49 S14G23    29.62F HX  93
LAMONI         CLOUDY    85  71  63 S14G21    29.68F HX  90
DES MOINES     CLOUDY    86  68  54 SW13G18   29.65F

$$





USA.gov is the U.S. government's official web portal to all federal, state and local government web resources and services.